Regional Weather Roundup
Issued by NWS Little Rock, AR

Home | Current Version | Previous Version | Graphics & Text | Print | Product List | Glossary On
Versions: 1 2 3 4 5 6 7 8 9 10 11 12 13 14 15 16 17 18 19 20 21 22 23 24 25 26 27 28 29 30 31
000
ASUS44 KLZK 221305
RWRLZK

WEATHER ROUNDUP FOR ARKANSAS
NATIONAL WEATHER SERVICE LITTLE ROCK AR
800 AM CDT FRI SEP 22 2017

NOTE: "FAIR" INDICATES FEW OR NO CLOUDS BELOW 12,000 FEET WITH NO
SIGNIFICANT WEATHER AND/OR OBSTRUCTIONS TO VISIBILITY.

ARZ001-003-010-029-221400-
NORTHWEST ARKANSAS

CITY           SKY/WX    TMP DP  RH WIND       PRES   REMARKS
FAYETTEVILLE   SUNNY     69  69 100 CALM      30.04S
FORT SMITH     SUNNY     74  71  91 NE5       30.01R
HARRISON       SUNNY     68  68 100 CALM      30.07S FOG
BENTONVILLE    SUNNY     72  68  87 SE9       30.06R
ROGERS         SUNNY     71  69  93 SE9       30.06R
SILOAM SPGS    SUNNY     71  69  93 SE6       30.04R
HIGHFILL       SUNNY     71  69  93 E3        30.04R
SPRINGDALE     SUNNY     72  70  94 SE8       30.06R
$$

ARZ004-005-016-221400-
NORTH CENTRAL ARKANSAS

CITY           SKY/WX    TMP DP  RH WIND       PRES   REMARKS
BATESVILLE     SUNNY    N/A N/A N/A CALM      30.05S FOG
FLIPPIN        SUNNY     70  68  93 CALM      30.06S FOG
MTN HOME       SUNNY     71  71 100 CALM      30.05S
$$

ARZ040-041-221400-
WEST CENTRAL ARKANSAS

CITY           SKY/WX    TMP DP  RH WIND       PRES   REMARKS
MENA           SUNNY     70  70 100 CALM      30.05R
MOUNT IDA      SUNNY     68  66  93 CALM      30.02R
$$

ARZ009-017-025-026-028-221400-
NORTHEAST ARKANSAS

CITY           SKY/WX    TMP DP  RH WIND       PRES   REMARKS
CORNING        FAIR      72  72 100 CALM      30.06R
JONESBORO      SUNNY     73  72  96 NE3       30.05R
NEWPORT        SUNNY     71  69  93 NE5       30.04S
BLYTHEVILLE    SUNNY     74  73  97 CALM      30.05R
$$

ARZ022-023-033-042-044-221400-
CENTRAL ARKANSAS

CITY           SKY/WX    TMP DP  RH WIND       PRES   REMARKS
LITTLE ROCK    SUNNY     73  73 100 CALM      30.03S FOG
N LITTLE ROCK    N/A     75  72  91 CALM      30.04R
JACKSONVILLE   SUNNY     73  72  99 CALM      30.03R
CONWAY           N/A     72  70  94 CALM      30.02S FOG
SEARCY         SUNNY     72  72 100 CALM      30.05S
HOT SPRINGS    SUNNY     73  71  93 CALM      30.03S
RUSSELLVILLE   SUNNY     71  70  96 CALM      30.02S
CLINTON        FAIR      68  66  94 CALM      30.05S FOG
$$

ARZ036-221400-
EAST ARKANSAS

CITY           SKY/WX    TMP DP  RH WIND       PRES   REMARKS
WEST MEMPHIS   SUNNY     73  73 100 CALM      30.03R
$$

ARZ050-053-066-070-073-221400-
SOUTHWEST ARKANSAS

CITY           SKY/WX    TMP DP  RH WIND       PRES   REMARKS
ARKADELPHIA    FAIR      69  69 100 CALM      30.03R FOG
CAMDEN         SUNNY     72  68  88 CALM      30.01S FOG
TEXARKANA      SUNNY     71  70  96 CALM      30.02R
EL DORADO      SUNNY     72  70  93 CALM      30.02S
DE QUEEN       SUNNY     69  69 100 CALM      30.00S FOG
$$

ARZ056-057-069-221400-
SOUTHEAST ARKANSAS

CITY           SKY/WX    TMP DP  RH WIND       PRES   REMARKS
PINE BLUFF     SUNNY     72  70  93 CALM      30.03R
STUTTGART      SUNNY     73  71  93 CALM      30.03S
MONTICELLO     PTSUNNY   72  70  93 CALM      30.02S

$$






USA.gov is the U.S. government's official web portal to all federal, state and local government web resources and services.